DW9924 Weather Reports


Display with metric or nautical units.
time (UTC)temp
F
wind
direction
speed
MPH
gust
MPH
rain 1hr
in
rain 24hr
in
rain mn
in
humidity
%
barometer
mb
20260509020906 62 34 2.0 3.0 0.00 0.00 0.00 69 1016.4
20260509020407 62 44 1.0 3.0 0.00 0.00 0.00 69 1016.4
20260509014906 62 41 1.0 3.0 0.00 0.00 0.00 70 1016.3
20260509014407 62 18 1.0 2.0 0.00 0.00 0.00 70 1016.2
20260509013906 62 28 2.0 3.0 0.00 0.00 0.00 71 1016.3
20260509013407 62 29 2.0 3.0 0.00 0.00 0.00 71 1016.3
20260509010407 62 15 2.0 3.0 0.00 0.00 0.00 73 1016.3
20260509004906 62 23 2.0 3.0 0.00 0.00 0.00 72 1016.4
20260509004407 62 25 2.0 3.0 0.00 0.00 0.00 72 1016.5
20260509003907 62 25 2.0 3.0 0.00 0.00 0.00 72 1016.6
20260509001406 62 23 2.0 3.0 0.00 0.00 0.00 70 1016.6
20260509000906 63 25 2.0 3.0 0.00 0.00 0.00 70 1016.4
20260509000410 63 25 2.0 3.0 0.00 0.00 0.00 70 1016.4
20260508234906 63 27 2.0 3.0 0.00 0.00 0.00 69 1016.5
20260508233906 63 38 2.0 3.0 0.00 0.00 0.00 69 1016.4
20260508233406 63 36 2.0 3.0 0.00 0.00 0.00 68 1016.4
20260508231406 63 27 2.0 3.0 0.00 0.00 0.00 67 1016.4
20260508230906 64 22 2.0 3.0 0.00 0.00 0.00 67 1016.3
20260508230409 64 29 2.0 3.0 0.00 0.00 0.00 67 1016.3
20260508224406 64 19 2.0 3.0 0.00 0.00 0.00 66 1016.3
20260508223907 64 30 2.0 3.0 0.00 0.00 0.00 66 1016.4
20260508223407 64 13 1.0 3.0 0.00 0.00 0.00 65 1016.3
20260508221906 65 44 2.0 3.0 0.00 0.00 0.00 63 1016.1
20260508220905 65 19 2.0 3.0 0.00 0.00 0.00 62 1016.2
20260508214908 67 40 2.0 5.0 0.00 0.00 0.00 60 1016.1
20260508214405 67 26 2.0 3.0 0.00 0.00 0.00 59 1016.1
20260508213905 67 324 2.0 5.0 0.00 0.00 0.00 60 1016.0
20260508213406 67 21 3.0 9.0 0.00 0.00 0.00 60 1016.1
20260508211905 67 349 3.0 8.0 0.00 0.00 0.00 59 1015.8
20260508211405 67 333 4.0 8.0 0.00 0.00 0.00 59 1015.7
20260508210906 67 352 2.0 5.0 0.00 0.00 0.00 59 1015.6
20260508210406 67 335 2.0 6.0 0.00 0.00 0.00 58 1015.5
20260508204407 68 36 3.0 8.0 0.00 0.00 0.00 56 1015.6
20260508203905 68 359 3.0 6.0 0.00 0.00 0.00 56 1015.6
20260508203405 68 10 5.0 10.0 0.00 0.00 0.00 56 1015.6
20260508201905 68 90 3.0 8.0 0.00 0.00 0.00 56 1015.6
20260508201405 68 84 2.0 8.0 0.00 0.00 0.00 57 1015.5
20260508200905 68 134 2.0 8.0 0.00 0.00 0.00 58 1015.5
20260508200408 68 163 2.0 7.0 0.00 0.00 0.00 59 1015.5
20260508194906 68 135 3.0 7.0 0.00 0.00 0.00 58 1015.3
20260508194407 67 116 3.0 7.0 0.00 0.00 0.00 59 1015.3
20260508193906 67 127 1.0 3.0 0.00 0.00 0.00 60 1015.3
20260508193405 67 128 1.0 3.0 0.00 0.00 0.00 60 1015.3
20260508191907 67 248 1.0 7.0 0.00 0.00 0.00 61 1015.1
20260508190907 67 156 2.0 3.0 0.00 0.00 0.00 62 1015.0
20260508184905 68 87 0.0 2.0 0.00 0.00 0.00 62 1014.7
20260508184405 69 89 1.0 3.0 0.00 0.00 0.00 62 1014.6
20260508183905 69 326 0.0 2.0 0.00 0.00 0.00 62 1014.4
20260508181905 71 325 0.0 3.0 0.00 0.00 0.00 60 1014.1
20260508181405 71 28 0.0 3.0 0.00 0.00 0.00 59 1014.1
20260508180905 71 337 1.0 3.0 0.00 0.00 0.00 59 1014.0
20260508174905 72 229 0.0 1.0 0.00 0.00 0.00 58 1013.7
20260508174408 73 229 0.0 1.0 0.00 0.00 0.00 58 1013.6
20260508173908 73 201 1.0 2.0 0.00 0.00 0.00 57 1013.6
20260508173405 73 232 1.0 3.0 0.00 0.00 0.00 56 1013.5
20260508171905 73 244 1.0 2.0 0.00 0.00 0.00 55 1013.6
20260508171408 74 250 1.0 3.0 0.00 0.00 0.00 54 1013.6
20260508170905 74 322 1.0 2.0 0.00 0.00 0.00 53 1013.6
20260508170412 74 257 1.0 3.0 0.00 0.00 0.00 53 1013.5
20260508164905 74 278 1.0 3.0 0.00 0.00 0.00 51 1013.4
20260508164408 74 203 1.0 5.0 0.00 0.00 0.00 52 1013.4
20260508163407 74 266 1.0 3.0 0.00 0.00 0.00 49 1013.4
20260508161906 75 229 1.0 3.0 0.00 0.00 0.00 52 1013.5
20260508161405 75 264 2.0 5.0 0.00 0.00 0.00 51 1013.5
20260508160910 76 330 1.0 3.0 0.00 0.00 0.00 50 1013.4
20260508160406 75 275 1.0 5.0 0.00 0.00 0.00 49 1013.5
20260508154905 74 254 2.0 5.0 0.00 0.00 0.00 51 1013.5
20260508154406 74 228 2.0 3.0 0.00 0.00 0.00 52 1013.5
20260508153405 74 234 1.0 3.0 0.00 0.00 0.00 53 1013.5
20260508151405 74 250 2.0 3.0 0.00 0.00 0.00 50 1013.5
20260508150906 74 220 1.0 3.0 0.00 0.00 0.00 50 1013.5
20260508150405 74 227 1.0 3.0 0.00 0.00 0.00 52 1013.5
20260508144905 73 265 1.0 3.0 0.00 0.01 0.00 52 1013.6
20260508144405 74 238 2.0 5.0 0.00 0.02 0.00 51 1013.6
20260508143908 74 245 2.0 5.0 0.00 0.02 0.00 49 1013.6
20260508143405 75 258 2.0 3.0 0.00 0.02 0.00 46 1013.6
20260508141906 74 242 2.0 3.0 0.00 0.02 0.00 48 1013.7
20260508141406 75 186 1.0 3.0 0.00 0.02 0.00 49 1013.6
20260508140905 74 285 1.0 6.0 0.00 0.02 0.00 50 1013.6
20260508133904 73 221 1.0 3.0 0.00 0.02 0.00 55 1014.1
20260508133404 73 280 1.0 6.0 0.00 0.02 0.00 54 1014.3
20260508131905 72 38 2.0 5.0 0.00 0.02 0.00 58 1014.3
20260508130904 71 284 1.0 3.0 0.00 0.02 0.00 57 1014.3
20260508130405 70 355 1.0 3.0 0.00 0.02 0.00 58 1014.3
20260508124905 70 248 1.0 5.0 0.00 0.02 0.00 60 1014.3
20260508124405 69 338 1.0 5.0 0.00 0.02 0.00 58 1014.4
20260508123905 69 131 2.0 3.0 0.00 0.02 0.00 59 1014.5
20260508123404 69 351 2.0 6.0 0.00 0.02 0.00 59 1014.4
20260508121904 69 227 1.0 3.0 0.00 0.02 0.00 60 1014.5
20260508121404 69 201 3.0 9.0 0.00 0.02 0.00 60 1014.4
20260508120905 69 205 2.0 3.0 0.00 0.02 0.00 61 1014.5
20260508120404 69 237 1.0 3.0 0.00 0.02 0.00 64 1014.5
20260508114406 70 186 1.0 3.0 0.00 0.02 0.00 61 1014.5
20260508113907 71 173 1.0 3.0 0.00 0.02 0.00 59 1014.4
20260508111920 72 203 1.0 3.0 0.00 0.02 0.00 55 1014.3
20260508111405 71 239 1.0 3.0 0.00 0.02 0.00 57 1014.3
20260508110910 70 206 0.0 2.0 0.00 0.02 0.00 57 1014.4
20260508110406 70 239 0.0 2.0 0.00 0.02 0.00 56 1014.4
20260508104905 70 202 0.0 2.0 0.00 0.02 0.00 55 1014.5
20260508104406 70 249 0.0 1.0 0.00 0.02 0.00 55 1014.4
20260508103904 70 249 1.0 1.0 0.00 0.02 0.00 53 1014.4
20260508103404 70 249 0.0 2.0 0.00 0.02 0.00 54 1014.5
20260508101405 70 234 0.0 1.0 0.00 0.02 0.00 55 1014.5
20260508100904 70 234 0.0 1.0 0.00 0.02 0.00 54 1014.5
20260508100406 70 234 0.0 2.0 0.00 0.02 0.00 56 1014.4
20260508094405 70 234 0.0 2.0 0.00 0.02 0.00 58 1014.4
20260508093905 69 234 1.0 2.0 0.00 0.02 0.00 54 1014.4
20260508093404 69 234 0.0 1.0 0.00 0.02 0.00 58 1014.3
20260508091407 68 234 0.0 1.0 0.00 0.02 0.00 59 1014.3
20260508090908 68 234 0.0 1.0 0.00 0.02 0.00 65 1014.4
20260508090406 67 234 0.0 1.0 0.00 0.02 0.00 63 1014.2
20260508084907 67 234 0.0 1.0 0.00 0.02 0.00 60 1014.2
20260508083907 67 234 0.0 1.0 0.00 0.02 0.00 60 1014.2
20260508081908 67 230 1.0 2.0 0.00 0.02 0.00 60 1014.0
20260508081407 68 311 0.0 2.0 0.00 0.02 0.00 61 1013.9
20260508080908 68 290 0.0 2.0 0.00 0.02 0.00 61 1014.0
20260508080407 67 231 0.0 2.0 0.00 0.02 0.00 63 1014.0
20260508074907 66 279 0.0 1.0 0.00 0.02 0.00 66 1013.8
20260508074407 66 279 0.0 2.0 0.00 0.02 0.00 65 1013.8
20260508071907 67 302 0.0 2.0 0.00 0.02 0.00 65 1013.6
20260508064908 65 306 0.0 1.0 0.00 0.02 0.00 67 1013.5
20260508064407 65 306 0.0 1.0 0.00 0.02 0.00 68 1013.5
20260508063906 65 285 1.0 2.0 0.00 0.02 0.00 68 1013.4
20260508061908 64 190 0.0 2.0 0.00 0.02 0.00 66 1013.3
20260508061417 64 239 1.0 3.0 0.00 0.02 0.00 66 1013.2
20260508060907 64 228 1.0 3.0 0.00 0.02 0.00 65 1013.3
20260508060407 63 229 1.0 3.0 0.00 0.02 0.00 66 1013.2
20260508054906 63 355 1.0 2.0 0.00 0.02 0.00 67 1013.1
20260508054406 63 240 1.0 2.0 0.00 0.02 0.00 67 1013.2
20260508053906 62 202 1.0 3.0 0.00 0.02 0.00 67 1013.2
20260508053406 62 262 0.0 3.0 0.00 0.02 0.00 68 1013.1
20260508051906 63 207 0.0 1.0 0.00 0.02 0.00 66 1013.2
20260508051406 63 263 1.0 5.0 0.00 0.02 0.00 65 1013.0
20260508050907 63 282 1.0 3.0 0.00 0.02 0.00 65 1013.0
20260508050406 63 256 1.0 5.0 0.00 0.02 0.00 65 1012.9
20260508044906 62 105 1.0 7.0 0.00 0.02 0.00 65 1012.7
20260508044407 62 183 2.0 9.0 0.00 0.02 0.00 65 1012.6
20260508043409 62 205 1.0 5.0 0.00 0.02 0.00 66 1012.4
20260508041906 61 28 2.0 5.0 0.00 0.02 0.00 67 1012.3
20260508040407 61 21 1.0 7.0 0.00 0.02 0.00 68 1012.1
20260508034906 61 215 1.0 3.0 0.00 0.02 0.00 68 1012.0
20260508034406 61 289 0.0 3.0 0.00 0.02 0.00 68 1012.0
20260508033406 61 182 1.0 2.0 0.00 0.02 0.00 68 1012.1
20260508031906 61 205 2.0 3.0 0.00 0.02 0.00 68 1012.0
20260508031406 61 44 2.0 3.0 0.00 0.02 0.00 69 1012.0
20260508030906 61 78 2.0 5.0 0.00 0.02 0.00 69 1012.0
20260508030406 61 207 0.0 5.0 0.00 0.02 0.00 69 1012.2
20260508024907 60 51 1.0 3.0 0.00 0.02 0.00 72 1012.2
20260508024406 59 92 1.0 5.0 0.00 0.02 0.00 74 1012.4
20260508021908 58 209 1.0 3.0 0.00 0.02 0.00 78 1012.5